(238249) = 2003 UD279

Discovered at Kitt Peak on 2003-10-26 by Spacewatch.

Orbit

Orbit type: Main Belt

Note: WebGL enabled browser required.

epoch2023-09-13.0
epoch JD2460200.5
perihelion date2021-08-20.19663
perihelion JD2459446.69663
argument of perihelion (°)320.66851
ascending node (°)74.57892
inclination (°)6.01819
eccentricity0.1792218
perihelion distance (AU)2.2330501
Tisserand w.r.t. Jupiter3.3
ΔV w.r.t. Earth (km/sec)9.6
semimajor axis (AU)2.7206497
mean anomaly (°)165.55907
mean daily motion (°/day)0.21963160
aphelion distance (AU)3.208
period (years)4.49
P-vector [x]0.81330007
P-vector [y]0.55677162
P-vector [z]0.16896261
Q-vector [x]-0.57299908
Q-vector [y]0.71597950
Q-vector [z]0.39880498
absolute magnitude16.61
phase slope0.15
uncertainty0
referenceMPEC 2024-A124
observations used388
oppositions13
arc length (days)7112
first opposition used2003
last opposition used2023
residual rms (arc-secs)0.74
perturbers coarse indicatorM-v
perturbers precise indicator003Ek
first observation date used2003-10-26.0
last observation date used2023-04-16.0
computer nameMPCLINUX
JD of orbit computation2456789.377400
perihelion JD uncertainty (days)6.2150E-05
argument of perihelion uncertainty (°)4.6055E-05
ascending node uncertainty (°)4.2826E-05
inclination uncertainty (°)8.4706E-06
eccentricity uncertainty 1.2091E-07
perihelion distance uncertainty (AU)3.2777E-07
Minimum Orbit Intersection Distances (in AU)
for orbit epoch: 2460200.5, reference: E2024-AC4
Mercury1.90563
Venus1.50957
Earth1.24314
Mars0.76926
Jupiter2.21674
Saturn6.43149
Uranus15.3766
Neptune27.4942

Observations

392 total observations over interval: 2003 10 26.40540 – 2023 04 16.288845
These data are available for download (format description).

Date (UT) J2000 RA J2000 Dec Magn Location Ref
2003 10 26.40540 04 06 37.82 +16 30 17.5 20.4 V 691 – Steward Observatory, Kitt Peak-Spacewatch MPS 90715
2003 10 26.43268 04 06 36.81 +16 30 18.0 20.4 V 691 – Steward Observatory, Kitt Peak-Spacewatch MPS 90715
2003 10 26.46015 04 06 35.80 +16 30 18.1 20.2 V 691 – Steward Observatory, Kitt Peak-Spacewatch MPS 90715
2003 10 29.30006 04 04 50.18 +16 31 25.5 19.3 R 699 – Lowell Observatory-LONEOS MPS 90715
2003 10 29.31928 04 04 49.52 +16 31 24.5   699 – Lowell Observatory-LONEOS MPS 90716
2003 10 29.33836 04 04 48.70 +16 31 25.7   699 – Lowell Observatory-LONEOS MPS 90716
2003 10 29.35752 04 04 47.86 +16 31 26.0   699 – Lowell Observatory-LONEOS MPS 90716
2003 11 16.24506 03 49 32.81 +16 35 46.5 19.6 V 703 – Catalina Sky Survey MPS 91132
2003 11 16.25637 03 49 32.03 +16 35 47.1 18.8 V 703 – Catalina Sky Survey MPS 91132
2003 11 16.26778 03 49 31.41 +16 35 47.1 19.1 V 703 – Catalina Sky Survey MPS 91132
2003 11 16.27918 03 49 30.72 +16 35 47.8 18.9 V 703 – Catalina Sky Survey MPS 91132
2003 11 18.26514 03 47 33.39 +16 36 15.2 19.4 V 691 – Steward Observatory, Kitt Peak-Spacewatch MPS 91132
2003 11 18.29349 03 47 31.63 +16 36 15.7 19.5 V 691 – Steward Observatory, Kitt Peak-Spacewatch MPS 91132
2003 11 18.32209 03 47 29.86 +16 36 16.2 19.4 V 691 – Steward Observatory, Kitt Peak-Spacewatch MPS 91132
2003 11 19.22126 03 46 36.63 +16 36 29.7 18.9 R 699 – Lowell Observatory-LONEOS MPS 91959
2003 11 19.24040 03 46 35.44 +16 36 29.3   699 – Lowell Observatory-LONEOS MPS 91959
2003 11 19.25958 03 46 34.30 +16 36 30.7   699 – Lowell Observatory-LONEOS MPS 91959
2003 11 19.27878 03 46 33.14 +16 36 29.8   699 – Lowell Observatory-LONEOS MPS 91959
2003 11 21.26450 03 44 34.90 +16 37 04.2 18.7   704 – Lincoln Laboratory ETS, New Mexico MPS 91132
2003 11 21.27762 03 44 34.14 +16 37 04.4 19.1   704 – Lincoln Laboratory ETS, New Mexico MPS 91132
2003 11 21.29006 03 44 33.31 +16 37 04.4 19.1   704 – Lincoln Laboratory ETS, New Mexico MPS 91132
2003 11 21.30303 03 44 32.53 +16 37 05.2 19.0   704 – Lincoln Laboratory ETS, New Mexico MPS 91132
2003 11 21.31600 03 44 31.67 +16 37 04.8 19.4   704 – Lincoln Laboratory ETS, New Mexico MPS 91132
2003 11 24.22660 03 41 39.59 +16 38 04.2 18.8 R 699 – Lowell Observatory-LONEOS MPS 91959
2003 11 24.24577 03 41 38.44 +16 38 04.8   699 – Lowell Observatory-LONEOS MPS 91959
2003 11 24.26493 03 41 37.28 +16 38 05.6   699 – Lowell Observatory-LONEOS MPS 91959
2003 11 24.28402 03 41 36.17 +16 38 06.1   699 – Lowell Observatory-LONEOS MPS 91959
2003 11 30.26768 03 35 54.49 +16 41 07.3 19.8 V 691 – Steward Observatory, Kitt Peak-Spacewatch MPS 92812
2003 11 30.29487 03 35 52.90 +16 41 08.5 19.5 V 691 – Steward Observatory, Kitt Peak-Spacewatch MPS 92812
2003 11 30.32277 03 35 51.36 +16 41 09.5 19.6 V 691 – Steward Observatory, Kitt Peak-Spacewatch MPS 92812
2003 12 01.27746 03 34 59.48 +16 41 47.6 18.8   704 – Lincoln Laboratory ETS, New Mexico MPS 92812
2003 12 01.29020 03 34 58.75 +16 41 48.2 19.5   704 – Lincoln Laboratory ETS, New Mexico MPS 92812
2003 12 01.30304 03 34 58.09 +16 41 48.9 19.5   704 – Lincoln Laboratory ETS, New Mexico MPS 92812
2003 12 18.09024 03 22 59.23 +17 02 34.2 20.0 V 691 – Steward Observatory, Kitt Peak-Spacewatch MPS 93756
2003 12 18.11682 03 22 58.40 +17 02 37.3 20.0 V 691 – Steward Observatory, Kitt Peak-Spacewatch MPS 93756
2003 12 18.14377 03 22 57.54 +17 02 40.4 20.0 V 691 – Steward Observatory, Kitt Peak-Spacewatch MPS 93756
2003 12 21.21886 03 21 35.86 +17 08 52.1 20.7   704 – Lincoln Laboratory ETS, New Mexico MPS 94748
2003 12 21.24560 03 21 34.96 +17 08 55.0 20.8   704 – Lincoln Laboratory ETS, New Mexico MPS 94748
2003 12 21.25885 03 21 34.68 +17 08 55.3 21.0   704 – Lincoln Laboratory ETS, New Mexico MPS 94748
2007 09 14.25527 22 36 33.01 -19 44 53.1 20.0 V 703 – Catalina Sky Survey MPS 216169
2007 09 14.26064 22 36 32.86 -19 44 53.6 19.9 V 703 – Catalina Sky Survey MPS 216169
2007 09 14.26601 22 36 32.32 -19 44 55.7 20.0 V 703 – Catalina Sky Survey MPS 216169
2007 09 14.27137 22 36 32.22 -19 44 57.6 19.7 V 703 – Catalina Sky Survey MPS 216169
2007 09 15.21968 22 35 47.19 -19 47 58.1 19.0 R 699 – Lowell Observatory-LONEOS MPS 216169
2007 09 15.24253 22 35 46.05 -19 48 02.8   699 – Lowell Observatory-LONEOS MPS 216169
2007 09 15.26532 22 35 44.81 -19 48 06.9   699 – Lowell Observatory-LONEOS MPS 216169
2007 09 15.28815 22 35 43.86 -19 48 12.4   699 – Lowell Observatory-LONEOS MPS 216169
2008 09 28.44986 08 07 09.14 +22 22 07.7 21.7 V 691 – Steward Observatory, Kitt Peak-Spacewatch MPS 257874
2008 09 28.46248 08 07 10.24 +22 22 05.5 20.9 V 691 – Steward Observatory, Kitt Peak-Spacewatch MPS 257874
2008 09 28.47508 08 07 11.44 +22 22 03.6 21.8 V 691 – Steward Observatory, Kitt Peak-Spacewatch MPS 257874
2009 02 01.26712 08 40 43.49 +26 16 58.1 20.0   704 – Lincoln Laboratory ETS, New Mexico MPS 272420
2009 02 01.29160 08 40 42.07 +26 17 05.9 19.9   704 – Lincoln Laboratory ETS, New Mexico MPS 272420
2009 02 01.30398 08 40 41.29 +26 17 09.3 19.9   704 – Lincoln Laboratory ETS, New Mexico MPS 272420
2010 03 18.36753 14 14 51.65 -06 41 07.1 20.9 V 691 – Steward Observatory, Kitt Peak-Spacewatch MPS 317872
2010 03 18.38523 14 14 51.09 -06 41 04.4 21.6 V 691 – Steward Observatory, Kitt Peak-Spacewatch MPS 317872
2010 03 18.40289 14 14 50.57 -06 41 01.0 21.3 V 691 – Steward Observatory, Kitt Peak-Spacewatch MPS 317872
2010 04 08.36420 14 01 02.28 -05 23 34.8 21.3 V G96 – Mt. Lemmon Survey MPS 320617
2010 04 08.37250 14 01 01.95 -05 23 32.8 21.9 V G96 – Mt. Lemmon Survey MPS 320617
2010 04 08.38083 14 01 01.56 -05 23 31.2 21.1 V G96 – Mt. Lemmon Survey MPS 320617
2010 04 08.38915 14 01 01.09 -05 23 29.8 20.8 V G96 – Mt. Lemmon Survey MPS 320617
2010 04 09.23824 14 00 20.47 -05 20 07.1 21.5 V 691 – Steward Observatory, Kitt Peak-Spacewatch MPS 320617
2010 04 09.25585 14 00 19.59 -05 20 02.2 21.0 V 691 – Steward Observatory, Kitt Peak-Spacewatch MPS 320617
2010 04 09.27346 14 00 18.68 -05 19 58.0 20.9 V 691 – Steward Observatory, Kitt Peak-Spacewatch MPS 320617
2012 10 24.603988 04 24 52.805 +17 46 40.99 19.4 i F51 – Pan-STARRS 1, Haleakala MPS 439279
2012 10 24.617799 04 24 52.415 +17 46 41.72 19.3 i F51 – Pan-STARRS 1, Haleakala MPS 439279
2012 11 06.535118 04 16 47.465 +17 57 50.44 19.3 i F51 – Pan-STARRS 1, Haleakala MPS 441369
2012 11 06.548257 04 16 46.798 +17 57 50.94 19.2 i F51 – Pan-STARRS 1, Haleakala MPS 441369
2012 11 12.29280 04 11 50.20 +18 01 51.6 19.1   704 – Lincoln Laboratory ETS, New Mexico MPS 443207
2012 11 12.30767 04 11 49.28 +18 01 51.9 19.9   704 – Lincoln Laboratory ETS, New Mexico MPS 443207
2012 11 12.32252 04 11 48.47 +18 01 53.4 19.5   704 – Lincoln Laboratory ETS, New Mexico MPS 443207
2012 11 12.33723 04 11 47.54 +18 01 54.1 19.4   704 – Lincoln Laboratory ETS, New Mexico MPS 443207
2012 11 12.35251 04 11 46.69 +18 01 54.1 19.7   704 – Lincoln Laboratory ETS, New Mexico MPS 443207
2012 11 12.36772 04 11 46.208 +18 01 55.80 19.7 g F51 – Pan-STARRS 1, Haleakala MPS 443207
2012 11 12.38037 04 11 45.489 +18 01 56.38 19.4 g F51 – Pan-STARRS 1, Haleakala MPS 443207
2012 11 14.19928 04 10 03.90 +18 03 06.8 19.2 R H15 – ISON-NM Observatory, Mayhill MPS 443207
2012 11 14.21454 04 10 03.01 +18 03 07.4 19.2 R H15 – ISON-NM Observatory, Mayhill MPS 443207
2012 11 14.22414 04 10 02.51 +18 03 08.1 19.5 V 691 – Steward Observatory, Kitt Peak-Spacewatch MPS 443207
2012 11 14.22986 04 10 02.10 +18 03 08.6 18.9 R H15 – ISON-NM Observatory, Mayhill MPS 443207
2012 11 14.24200 04 10 01.46 +18 03 08.9 19.6 V 691 – Steward Observatory, Kitt Peak-Spacewatch MPS 443207
2012 11 14.24684 04 10 01.12 +18 03 08.8 19.0 R H15 – ISON-NM Observatory, Mayhill MPS 443207
2012 11 14.25987 04 10 00.40 +18 03 09.8 19.5 V 691 – Steward Observatory, Kitt Peak-Spacewatch MPS 443207
2012 11 19.22328 04 05 11.05 +18 06 20.4 19.4 V 691 – Steward Observatory, Kitt Peak-Spacewatch MPS 444711
2012 11 19.24097 04 05 09.96 +18 06 21.2 19.4 V 691 – Steward Observatory, Kitt Peak-Spacewatch MPS 444711
2012 11 19.25866 04 05 08.87 +18 06 21.9 19.7 V 691 – Steward Observatory, Kitt Peak-Spacewatch MPS 444711
2012 11 19.27358 04 05 07.89 +18 06 22.4 19.3   704 – Lincoln Laboratory ETS, New Mexico MPS 444711
